Overview Statistics Trail Chart Weather Telemetry Raw packets
 

This is the latest recevied weather packets stored in our database for station/object OK1TBM-13. If no packets are shown the sender has not sent any weather packets the latest 10 day(s).

<< 44 45 46 47 48 49 50 >>
Time Temp. Humidity Pressure Rain* Wind** Luminosity Snow
1788253801 20.56° C 64% 1018.3 hPa 0 mm - 448 W/m² -
1788253501 20° C 65% 1018.3 hPa 0 mm - 447 W/m² -
1788253201 20° C 65% 1018.3 hPa 0 mm - 331 W/m² -
1788252601 20° C 65% 1018.3 hPa 0 mm - 468 W/m² -
1788252002 19.44° C 65% 1018.3 hPa 0 mm - 259 W/m² -
1788251701 19.44° C 66% 1018 hPa 0 mm - 324 W/m² -
1788251402 20° C 66% 1018 hPa 0 mm - 288 W/m² -
1788250801 19.44° C 65% 1018 hPa 0 mm - 410 W/m² -
1788250201 20° C 67% 1018 hPa 0 mm - 511 W/m² -
1788249901 19.44° C 68% 1018 hPa 0 mm - 574 W/m² -
1788249600 19.44° C 68% 1018 hPa 0 mm - 438 W/m² -
1788249300 19.44° C 70% 1018 hPa 0 mm - 476 W/m² -
1788249001 18.89° C 73% 1018 hPa 0 mm - 106 W/m² -
1788248707 18.33° C 73% 1018 hPa 0 mm - 145 W/m² -
1788248401 18.89° C 71% 1018 hPa 0 mm - 462 W/m² -
1788248101 18.33° C 73% 1018 hPa 0 mm - 487 W/m² -
1788247802 18.33° C 75% 1018 hPa 0 mm - 127 W/m² -
1788247506 18.33° C 75% 1018 hPa 0 mm - 153 W/m² -
1788247201 18.33° C 75% 1018 hPa 0 mm - 133 W/m² -
1788246901 17.78° C 75% 1017.6 hPa 0 mm - 165 W/m² -
1788246600 18.33° C 75% 1017.6 hPa 0 mm - 131 W/m² -
1788246300 17.78° C 76% 1017.6 hPa 0 mm - 136 W/m² -
1788245702 18.33° C 75% 1017.6 hPa 0 mm - 316 W/m² -
1788245400 18.33° C 74% 1017.6 hPa 0 mm - 214 W/m² -
1788245102 18.33° C 75% 1017.6 hPa 0 mm - 301 W/m² -

* Rain latest hour (hover to see other rain measurements)
** Current wind speed in m/s (hover to see current wind gust speed)